{"data":{"norad_id":62743,"intl_designator":"2025-014J","name":"STARLINK-32800","alt_names":[],"object_type":"PAYLOAD","status":"ACTIVE","operator":null,"country":"US","launch_date":"2025-01-21","launch_site_code":"AFETR","launch_vehicle":null,"mission":null,"orbit_class":"UNKNOWN","rcs_meters":null,"size_class":null,"mass_kg":null,"dimensions":null,"purposes":["comms"],"wikipedia_slug":null,"has_3d_model":false,"image_url":null,"decayed_at":null,"tle_current":{"epoch":"2026-09-21T00:09:19.320768Z","epoch_age_seconds":127604,"freshness":"FRESH","line1":"1 62743U 25014J   26264.00647362  .00003744  00000+0  14559-3 0  9996","line2":"2 62743  42.9997 138.6834 0001425 273.6768  86.3921 15.27562410 93046","mean_motion":15.2756241,"eccentricity":0.0001425,"inclination_deg":42.9997,"raan_deg":138.6834,"arg_perigee_deg":273.6768,"mean_anomaly_deg":86.3921,"bstar":0.00014559,"rev_number":9304,"period_min":94.267834202597,"perigee_km":482.1240408087,"apogee_km":484.07949385739,"semimajor_km":6861.238767333,"source":"CELESTRAK","updated_at":"2026-09-22T09:00:49.657543Z"}}}